< < Back
Terminal Aerodrome Forecast


Current Version              Previous Versions:   1  2  3  4  5  6  7  8  9  

Terminal Aerodrome Forecast

760
FTUS42 KILM 210500
TAFFLO
TAF
KFLO 210520Z 2106/2206 35008KT P6SM OVC200
     FM211200 31009KT P6SM SCT200
     FM212300 21007KT P6SM SKC=

Latest METAR

834
SAUS70 KWBC 220400 RRD
MTRFLO
METAR KFLO 220353Z AUTO 22006KT 10SM CLR 23/18 A2992 RMK AO2 SLP128
T02330183


USA.gov is the U.S. government's official web portal to all federal, state and local government web resources and services.